Content
SEND FEEDBACK

Daily
Averages
Monthly
Summary
United States of America

ASHEVILLE, NORTH CAROLINA


Home > North America > United States > North Carolina
Elevation: 2240 feet     Latitude: 35 36N     Longitude: 082 32W

WEATHER
 
SELECT A DAY
Number of Records: 225,823;   Date Range: 1/1/95 - 7/29/14
 
SHARE

PRINT THIS DATA

[ ← Previous Day ]
WEATHER ALMANAC - JANUARY 16, 2013
[ Next Day → ]
[ °C ]   °F
Weather ElementAverageHighLow
Temperature52 °F55.9 °F (1:54 pm)45 °F (2:54 am)
Dewpoint50.5 °F54 °F (4:54 pm)44.6 °F (5:17 am)
Humidity95 %100 % (2:54 am)87 % (2:54 pm)
Barometer29.98 in30.03 in (9:51 am)29.94 in (5:54 am)
Wind Speed3.3 mph10.4 mph (9:40 am)
Weather ElementAverage
Visibility6.3 mi
Wind DirectionSE (138 °)

Weather ElementTotal
Precipitation0.56 in
Heating Degree Days14.6 (Base 65)
Growing Degree Days0.5 (Base 50)
Averaged from 46 records on January 16, 2013
WEATHER CONDITIONS BREAKOUT
WIND DIRECTION BREAKOUT
WEATHER BY HOUR - JANUARY 16, 2013
[ °C ]   °F
Local TimeTemperatureDewpointHumidityBarometerVisibilityWind DirectionWind SpeedGust SpeedPrecipitationEventsConditions
2:54 AM45.0 °F45.0 °F100 %29.98 in2.0 miSSE (160°)6.9 mph0.01 inRainLight Rain
3:54 AM45.0 °F45.0 °F100 %29.97 in2.0 miSouth (170°)4.6 mph0.02 inRainLight Rain
4:54 AM46.0 °F45.0 °F96 %29.95 in2.0 miSSE (160°)4.6 mph0.02 inOvercast
5:17 AM46.4 °F44.6 °F93 %29.95 in2.0 miCalm0.00 inRainLight Rain
5:54 AM46.9 °F46.9 °F100 %29.94 in2.0 miSouth (170°)4.6 mph0.00 inOvercast
6:54 AM48.0 °F46.9 °F96 %29.95 in2.0 miSouth (170°)9.2 mph0.05 inRainLight Rain
7:26 AM48.2 °F46.4 °F93 %29.96 in2.0 miSSE (160°)6.9 mph0.07 inRainRain
7:54 AM48.9 °F48.0 °F97 %29.96 in2.0 miSouth (170°)3.5 mph0.10 inRainLight Rain
8:13 AM48.2 °F48.2 °F100 %29.98 in2.0 miCalm0.00 inOvercast
8:32 AM48.2 °F48.2 °F100 %29.99 in2.0 miCalm0.00 inRainLight Rain
8:54 AM48.9 °F48.0 °F97 %29.98 in2.0 miSouth (190°)3.5 mph0.00 inOvercast
9:29 AM50.0 °F48.2 °F94 %30.02 in10.0 miNNW (330°)9.2 mph0.00 inRainLight Rain
9:40 AM50.0 °F48.2 °F94 %30.02 in10.0 miNNW (340°)10.4 mph0.00 inRainLight Rain
9:51 AM50.0 °F48.2 °F94 %30.03 in10.0 miNNW (330°)9.2 mph0.00 inRainLight Rain
9:54 AM50.0 °F48.9 °F96 %30.02 in10.0 miNNW (340°)9.2 mph0.00 inRainLight Rain
10:33 AM51.8 °F50.0 °F94 %30.03 in8.0 miNW (320°)6.9 mph0.01 inRainLight Rain
10:54 AM52.0 °F51.1 °F97 %30.01 in2.0 miNW (310°)6.9 mph0.01 inRainLight Rain
11:06 AM51.8 °F51.8 °F100 %30.02 in2.0 miNorth (350°)3.5 mph0.00 inRainLight Rain
11:31 AM51.8 °F51.8 °F100 %30.01 in2.0 miNNE (20°)3.5 mph0.01 inOvercast
11:54 AM53.1 °F51.1 °F93 %29.98 in10.0 miNNW (330°)3.5 mph0.01 inOvercast
12:46 PM53.6 °F51.8 °F94 %29.98 in3.0 miCalmOvercast
12:54 PM54.0 °F52.0 °F93 %29.97 in3.0 miCalmOvercast
1:27 PM55.4 °F53.6 °F94 %29.97 in5.0 miSSE (160°)4.6 mphOvercast
1:54 PM55.9 °F53.1 °F90 %29.94 in5.0 miSouth (170°)3.5 mphOvercast
2:25 PM55.4 °F51.8 °F88 %29.97 in10.0 miSouth (170°)5.8 mphOvercast
2:40 PM55.4 °F51.8 °F88 %29.97 in10.0 miSSE (150°)3.5 mphOvercast
2:54 PM55.9 °F52.0 °F87 %29.95 in10.0 miCalmOvercast
3:01 PM55.4 °F51.8 °F88 %29.97 in10.0 miCalm0.00 inRainLight Rain
3:26 PM55.4 °F53.6 °F94 %29.98 in10.0 miCalmOvercast
3:54 PM55.9 °F53.1 °F90 %29.95 in10.0 miCalm0.00 inOvercast
4:03 PM55.4 °F53.6 °F94 %29.98 in10.0 miCalmOvercast
4:23 PM55.4 °F53.6 °F94 %29.98 in10.0 miCalmOvercast
4:51 PM55.4 °F53.6 °F94 %29.99 in10.0 miNW (320°)4.6 mph0.00 inRainLight Rain
4:54 PM55.0 °F54.0 °F96 %29.96 in10.0 miNW (320°)5.8 mph0.00 inRainLight Rain
5:54 PM55.0 °F54.0 °F96 %29.98 in10.0 miNNW (330°)5.8 mph0.00 inOvercast
6:54 PM54.0 °F52.0 °F93 %29.98 in10.0 miCalmOvercast
7:37 PM53.6 °F51.8 °F94 %30.00 in9.0 miNorth (350°)5.8 mph0.00 inRainLight Rain
7:54 PM54.0 °F51.1 °F90 %29.98 in10.0 miNorth (360°)4.6 mph0.00 inOvercast
8:54 PM53.1 °F52.0 °F96 %29.99 in10.0 miCalm0.00 inOvercast
9:54 PM53.1 °F52.0 °F96 %29.99 in9.0 miCalm0.00 inRainLight Rain
10:26 PM53.6 °F51.8 °F94 %30.00 in4.0 miCalm0.03 inRainLight Rain
10:35 PM53.6 °F51.8 °F94 %30.00 in7.0 miCalm0.03 inRainLight Rain
10:54 PM52.0 °F52.0 °F100 %29.98 in4.0 miCalm0.05 inRainLight Rain
11:36 PM51.8 °F51.8 °F100 %29.99 in5.0 miCalm0.04 inRainLight Rain
11:44 PM51.8 °F51.8 °F100 %29.99 in5.0 miCalm0.05 inRainLight Rain
11:54 PM52.0 °F52.0 °F100 %29.95 in4.0 miCalm0.05 inRainLight Rain
Hourly data recorded from KAVL, located miles away from Asheville, North Carolina







STORIES FROM OUR PARTNERS